Lid_Strength_Index
2 2 2 2 2 2 2 2 2 2 2 2 2 2 2 2 2 2 5 6 4 -2 -0 5 6 6 6 6 5 4 10 12 9 9 9 6 7 5 4 6 5 4 4 3 2
2 2 2 2 2 2 2 2 2 2 2 2 2 2 2 2 3 5 1 -2 -2 -1 7 6 7 6 9 7 6 6 10 8 6 7 7 6 6 6 7 7 6 5 3 3 2
3 3 3 3 3 3 2 2 2 2 3 3 2 2 2 2 5 4 -2 -1 -2 1 6 6 6 7 8 8 7 6 8 6 6 6 5 6 6 5 7 8 6 6 5 4 3
3 3 3 3 3 3 3 2 2 3 3 3 2 2 2 3 9 3 -3 -3 -1 5 6 6 7 7 8 8 6 7 5 5 5 5 6 7 5 7 6 6 4 4 4 4 4
3 3 3 3 3 3 3 3 3 3 3 2 2 2 4 6 5 0 -3 -0 5 8 8 7 7 6 8 7 6 7 5 5 5 5 5 5 7 7 6 4 4 3 4 4 4
3 3 3 3 3 3 3 3 3 3 3 2 2 2 5 8 2 -0 4 6 8 8 8 7 7 5 7 6 7 6 5 6 5 5 5 7 7 6 6 4 4 4 4 4 4
3 3 3 3 3 3 3 4 4 4 3 1 2 2 5 5 2 0 5 9 8 7 7 5 4 6 6 7 5 6 7 7 6 5 6 6 8 9 5 5 6 5 4 4 4
3 3 3 3 3 3 4 4 4 3 2 1 1 4 8 2 2 4 6 7 8 7 6 5 5 6 6 6 6 8 8 10 7 6 5 6 11 7 5 6 6 5 5 4 4
3 3 3 3 4 4 5 5 3 2 1 1 5 5 7 1 4 4 4 7 8 8 7 4 5 7 6 9 10 9 12 10 8 5 7 7 11 7 6 6 6 6 5 5 4
3 3 3 3 4 4 5 4 3 4 2 1 2 7 5 5 5 4 5 5 7 7 6 5 7 9 10 11 13 12 11 10 10 8 8 9 10 8 6 7 7 6 6 6 5
3 3 4 4 4 5 6 6 6 7 5 7 7 6 5 3 4 6 4 6 7 7 10 8 10 12 10 10 9 8 9 10 8 8 9 10 10 9 7 7 7 6 7 6 5
4 4 4 4 5 5 7 8 5 4 8 4 3 5 4 6 6 5 5 7 7 9 8 10 12 9 8 8 8 9 10 10 10 8 9 10 10 8 7 7 7 7 7 6 5
4 4 4 5 5 6 7 5 3 4 8 6 4 4 4 5 6 6 5 7 8 9 9 11 10 7 8 8 9 11 13 10 11 9 8 10 11 10 8 7 6 6 6 5 5
4 4 5 6 6 7 6 4 4 4 11 8 7 5 5 5 7 5 5 6 8 9 9 11 8 8 9 9 11 12 9 7 10 11 14 10 16 12 10 9 8 7 7 6 5
4 4 5 6 9 7 5 4 3 5 16 7 7 4 6 7 8 7 4 7 8 9 9 11 10 10 10 9 9 10 9 9 8 11 12 12 14 14 11 11 10 8 7 7 6
4 4 5 7 8 6 4 5 6 10 15 9 7 8 8 9 8 7 6 7 6 8 9 10 8 9 9 8 8 8 10 11 11 13 16 14 14 15 13 11 9 8 7 6 5
4 5 6 5 7 5 5 6 11 15 8 11 11 10 9 9 9 9 9 10 11 12 13 10 9 9 8 11 10 10 13 16 16 17 18 14 14 14 11 9 8 8 7 6 5
5 6 6 6 7 5 5 9 15 10 10 10 10 11 12 9 9 9 10 11 10 11 13 13 13 10 9 10 11 12 12 16 17 19 18 13 16 14 9 7 7 6 6 5 5
6 7 7 5 6 6 7 13 12 10 8 9 10 12 13 10 10 10 11 11 9 10 12 14 13 8 9 9 10 12 13 11 14 15 17 16 13 10 8 8 7 7 6 6 6
8 7 5 4 4 5 9 12 11 8 9 9 12 12 14 11 11 12 12 10 9 8 10 11 14 11 8 8 10 12 10 13 14 19 22 18 16 16 11 10 8 7 7 6 5
7 7 5 4 4 7 12 13 10 8 9 10 11 10 11 11 11 12 11 9 8 8 9 12 13 12 9 10 11 10 12 12 13 15 19 21 17 11 10 9 9 7 6 6 5
10 9 5 5 9 10 11 10 10 9 9 9 9 10 10 10 11 11 11 10 7 7 10 11 12 12 12 9 7 9 11 12 15 17 16 16 16 9 8 8 8 7 7 6 5
11 9 5 6 12 12 9 8 9 9 9 10 10 9 8 9 11 9 9 6 6 7 9 9 13 13 13 12 9 10 10 10 11 13 17 18 16 9 8 8 7 7 7 7 6
9 10 6 8 9 9 10 9 9 6 7 9 10 9 9 10 9 10 9 7 6 7 6 7 12 12 14 13 12 12 11 10 12 16 16 15 13 11 10 9 8 7 7 6 6
8 9 7 10 9 8 11 10 9 10 8 8 11 10 10 12 11 11 9 8 7 6 7 9 13 12 12 10 11 11 11 10 12 13 14 12 13 9 9 9 7 6 7 6 7
8 9 8 9 8 8 10 11 10 9 8 8 9 8 8 10 9 10 9 9 10 8 9 9 13 12 13 11 11 11 10 10 10 11 11 11 12 8 7 7 7 7 7 8 8
7 6 7 9 9 10 10 8 8 7 7 7 7 8 9 8 7 7 7 7 8 9 10 9 11 13 15 12 11 13 10 11 10 9 10 13 10 8 9 8 7 8 7 8 7